TimeAKDT,TemperatureF,Dew PointF,Humidity,Sea Level PressureIn,VisibilityMPH,Wind Direction,Wind SpeedMPH,Gust SpeedMPH,PrecipitationIn,Events,Conditions,WindDirDegrees,DateUTC
12:55 AM,58.3,34.2,40,29.83,10.0,South,3.5,-,N/A,,Mostly Cloudy,170,2013-05-26 08:55:00
1:55 AM,55.8,34.7,45,29.84,10.0,West,3.5,-,N/A,,Mostly Cloudy,270,2013-05-26 09:55:00
2:55 AM,56.1,33.1,42,29.84,10.0,Variable,2.3,-,N/A,,Clear,0,2013-05-26 10:55:00
3:55 AM,53.1,34.3,49,29.85,10.0,South,4.6,-,N/A,,Clear,180,2013-05-26 11:55:00
4:55 AM,51.3,34.2,52,29.85,10.0,SW,4.6,-,N/A,,Clear,230,2013-05-26 12:55:00
5:55 AM,51.3,33.4,51,29.86,10.0,Variable,3.5,-,N/A,,Clear,0,2013-05-26 13:55:00
6:55 AM,54.0,32.2,44,29.86,10.0,Variable,3.5,-,N/A,,Clear,0,2013-05-26 14:55:00
7:55 AM,54.7,33.8,45,29.86,10.0,SSE,1.2,-,N/A,,Clear,160,2013-05-26 15:55:00
8:55 AM,56.8,34.7,43,29.87,10.0,Variable,2.3,-,N/A,,Clear,0,2013-05-26 16:55:00
9:55 AM,58.1,34.2,41,29.86,10.0,Variable,4.6,-,N/A,,Clear,0,2013-05-26 17:55:00
10:55 AM,61.2,31.1,32,29.84,10.0,Variable,3.5,-,N/A,,Clear,0,2013-05-26 18:55:00
11:55 AM,62.4,31.6,31,29.84,10.0,North,8.1,13.8,N/A,,Clear,10,2013-05-26 19:55:00
12:55 PM,64.9,31.3,28,29.83,10.0,NNE,3.5,13.8,N/A,,Clear,30,2013-05-26 20:55:00
1:55 PM,66.4,31.3,27,29.82,10.0,ENE,8.1,16.1,N/A,,Clear,60,2013-05-26 21:55:00
2:55 PM,66.0,29.7,26,29.83,10.0,Variable,5.8,-,N/A,,Clear,0,2013-05-26 22:55:00
3:55 PM,67.1,28.0,23,29.82,10.0,East,9.2,16.1,N/A,,Clear,80,2013-05-26 23:55:00
4:55 PM,68.0,27.1,22,29.82,10.0,Variable,5.8,-,N/A,,Clear,0,2013-05-27 00:55:00
5:55 PM,69.1,25.5,19,29.81,10.0,Variable,4.6,-,N/A,,Clear,0,2013-05-27 01:55:00
6:55 PM,68.5,27.3,21,29.79,10.0,NNW,4.6,-,N/A,,Clear,340,2013-05-27 02:55:00
7:55 PM,69.1,25.3,19,29.78,10.0,Variable,5.8,-,N/A,,Clear,0,2013-05-27 03:55:00
8:55 PM,68.5,26.2,20,29.78,10.0,NE,8.1,13.8,N/A,,Clear,50,2013-05-27 04:55:00
9:55 PM,67.1,26.8,22,29.78,10.0,NE,5.8,-,N/A,,Mostly Cloudy,40,2013-05-27 05:55:00
10:55 PM,64.4,27.7,25,29.79,10.0,NE,4.6,-,N/A,,Mostly Cloudy,50,2013-05-27 06:55:00
11:55 PM,63.1,28.2,27,29.80,10.0,Variable,4.6,-,N/A,,Mostly Cloudy,0,2013-05-27 07:55:00